EW7112 Weather Reports


time (UTC)temp
C
wind
direction
speed
KPH
gust
KPH
rain 1hr
cm
rain 24hr
cm
rain mn
cm
humidity
%
barometer
mb
20260905220022 37 360 1.6 9.7 0.00 0.00 0.00 36 988.1
20260905214520 38 82 4.8 11.3 0.00 0.00 0.00 37 988.3
20260905213029 37 203 0.0 8.0 0.00 0.00 0.00 38 988.4
20260905211519 37 1 1.6 8.0 0.00 0.00 0.00 38 988.6
20260905210018 37 118 4.8 12.9 0.00 0.00 0.00 39 988.8
20260905204509 37 44 6.4 12.9 0.00 0.00 0.00 40 989.0
20260905203007 36 260 3.2 9.7 0.00 0.00 0.00 41 989.2
20260905201506 36 207 1.6 9.7 0.00 0.00 0.00 40 989.4
20260905200004 36 86 4.8 12.9 0.00 0.00 0.00 42 989.7
20260905194559 36 58 1.6 9.7 0.00 0.00 0.00 41 989.8
20260905193056 36 105 3.2 9.7 0.00 0.00 0.00 42 990.0
20260905191556 36 243 1.6 14.5 0.00 0.00 0.00 43 990.3
20260905190104 35 132 1.6 9.7 0.00 0.00 0.00 46 990.7
20260905184605 35 312 1.6 12.9 0.00 0.00 0.00 44 990.9
20260905183048 35 155 4.8 12.9 0.00 0.00 0.00 45 991.1
20260905181545 35 98 4.8 12.9 0.00 0.00 0.00 46 991.3
20260905180043 34 252 4.8 9.7 0.00 0.00 0.00 46 991.5
20260905174546 34 81 1.6 11.3 0.00 0.00 0.00 48 991.7
20260905173039 33 79 3.2 11.3 0.00 0.00 0.00 48 991.9
20260905171534 33 281 0.0 8.0 0.00 0.00 0.00 51 992.0
20260905170035 33 1 3.2 9.7 0.00 0.00 0.00 51 992.1
20260905164530 33 94 1.6 8.0 0.00 0.00 0.00 52 992.3
20260905163027 32 293 3.2 8.0 0.00 0.00 0.00 54 992.3
20260905161523 32 95 1.6 6.4 0.00 0.00 0.00 55 992.3
20260905160022 32 176 1.6 9.7 0.00 0.00 0.00 56 992.3
20260905154516 32 270 1.6 9.7 0.00 0.00 0.00 58 992.3
20260905153017 31 243 0.0 4.8 0.00 0.00 0.00 59 992.3
20260905151511 31 311 1.6 8.0 0.00 0.00 0.00 62 992.3
20260905150008 30 240 3.2 6.4 0.00 0.00 0.00 63 992.1
20260905144505 30 240 4.8 9.7 0.00 0.00 0.00 65 992.1
20260905143002 29 160 3.2 8.0 0.00 0.00 0.00 68 992.2
20260905141628 28 232 1.6 8.0 0.00 0.00 0.00 70 992.1
20260905140057 28 236 1.6 4.8 0.00 0.00 0.00 72 992.1
20260905134553 27 231 1.6 4.8 0.00 0.00 0.00 75 992.0
20260905133052 27 110 0.0 4.8 0.00 0.00 0.00 76 992.0
20260905131600 26 177 0.0 3.2 0.00 0.00 0.00 77 991.8
20260905130046 26 129 0.0 3.2 0.00 0.00 0.00 78 991.6
20260905124550 26 129 0.0 0.0 0.00 0.00 0.00 78 991.7
20260905123054 26 129 0.0 0.0 0.00 0.00 0.00 78 991.4
20260905121540 26 129 0.0 0.0 0.00 0.00 0.00 77 991.1
20260905120039 26 129 0.0 0.0 0.00 0.00 0.00 76 991.2
20260905114542 26 129 0.0 0.0 0.00 0.00 0.00 76 991.1
20260905113041 26 129 0.0 0.0 0.00 0.00 0.00 75 991.0
20260905111546 27 129 0.0 3.2 0.00 0.00 0.00 75 990.9
20260905110032 27 216 0.0 0.0 0.00 0.00 0.00 75 991.1
20260905104531 27 216 0.0 1.6 0.00 0.00 0.00 74 991.2
20260905103032 27 216 0.0 1.6 0.00 0.00 0.00 73 991.2
20260905101537 27 216 0.0 1.6 0.00 0.00 0.00 72 991.2
20260905100027 27 216 0.0 3.2 0.00 0.00 0.00 72 991.2
20260905094525 27 216 0.0 3.2 0.00 0.00 0.00 72 991.1
20260905093023 28 215 0.0 1.6 0.00 0.00 0.00 71 990.9
20260905091522 28 215 0.0 1.6 0.00 0.00 0.00 70 990.8
20260905090026 28 215 0.0 3.2 0.00 0.00 0.00 70 990.8
20260905084546 28 215 0.0 3.2 0.00 0.00 0.00 69 990.8
20260905083020 28 49 0.0 3.2 0.00 0.00 0.00 68 990.8
20260905081516 28 200 0.0 6.4 0.00 0.00 0.00 67 990.7
20260905080013 28 240 0.0 6.4 0.00 0.00 0.00 66 990.7
20260905074511 29 260 1.6 8.0 0.00 0.00 0.00 65 990.6
20260905073015 29 192 0.0 6.4 0.00 0.00 0.00 65 990.8
20260905071508 29 210 1.6 9.7 0.00 0.00 0.00 64 990.9
20260905070007 30 194 0.0 6.4 0.00 0.00 0.00 64 990.9
20260905064505 30 208 0.0 3.2 0.00 0.00 0.00 63 991.0
20260905063006 30 216 0.0 6.4 0.00 0.00 0.00 62 990.9
20260905061503 30 227 3.2 8.0 0.00 0.00 0.00 62 991.0
20260905060003 30 199 1.6 6.4 0.00 0.00 0.00 61 990.9
20260905054603 30 105 0.0 9.7 0.00 0.00 0.00 61 990.9
20260905053109 30 125 1.6 8.0 0.00 0.00 0.00 60 990.7
20260905051555 31 188 4.8 9.7 0.00 0.00 0.00 59 990.7
20260905050052 31 189 1.6 6.4 0.00 0.00 0.00 59 990.7
20260905044552 31 228 1.6 8.0 0.00 0.00 0.00 58 990.7
20260905043055 31 212 3.2 8.0 0.00 0.00 0.00 57 990.6
20260905041552 31 158 1.6 14.5 0.00 0.00 0.00 56 990.6
20260905040051 32 167 3.2 11.3 0.00 0.00 0.00 55 990.6
20260905034551 32 122 3.2 12.9 0.00 0.00 0.00 52 990.8
20260905033054 32 159 1.6 6.4 0.00 0.00 0.00 50 990.7
20260905031553 32 129 3.2 9.7 0.00 0.00 0.00 49 990.5
20260905030054 32 141 1.6 8.0 0.00 0.00 0.00 49 990.4
20260905024615 33 110 1.6 8.0 0.00 0.00 0.00 48 990.2
20260905023051 33 119 3.2 11.3 0.00 0.00 0.00 48 990.1
20260905021547 33 238 1.6 9.7 0.00 0.00 0.00 48 989.8
20260905020050 33 118 1.6 9.7 0.00 0.00 0.00 47 989.6
20260905014546 33 165 1.6 8.0 0.00 0.00 0.00 47 989.4
20260905013045 33 111 4.8 14.5 0.00 0.00 0.00 47 989.2
20260905011552 33 138 4.8 9.7 0.00 0.00 0.00 47 989.1
20260905010044 34 70 3.2 12.9 0.00 0.00 0.00 47 989.0
20260905004550 34 141 6.4 12.9 0.00 0.00 0.00 47 988.7
20260905003040 35 170 3.2 12.9 0.00 0.00 0.00 47 988.5
20260905001539 35 174 3.2 14.5 0.00 0.00 0.00 46 988.4
20260905000038 35 113 3.2 9.7 0.00 0.00 0.00 45 988.4
20260904234545 35 162 6.4 14.5 0.00 0.00 0.00 45 988.5
20260904233052 36 109 3.2 12.9 0.00 0.00 0.00 44 988.3
20260904231532 36 157 3.2 12.9 0.00 0.00 0.00 42 988.4
20260904230033 36 165 1.6 9.7 0.00 0.00 0.00 42 988.4
20260904224539 36 115 1.6 11.3 0.00 0.00 0.00 42 988.5
20260904223035 36 150 3.2 12.9 0.00 0.00 0.00 42 988.6
20260904221524 36 113 4.8 9.7 0.00 0.00 0.00 40 988.5